Probability
1 0 0 0 0 0 0 0 0 0 1 3 4 4 5 5 6 7 8 11 16 21 22 21 21 24 24 22 21 18 14 10 9 8 5 4 4 4 5 6 8 11 12 12
1 0 0 0 0 0 0 0 0 0 1 4 5 4 5 7 8 9 9 10 13 17 19 18 19 22 22 21 20 17 13 11 11 9 6 4 5 6 6 8 10 11 12 12
1 0 0 0 0 0 0 1 1 1 2 5 7 7 7 8 9 10 10 9 10 11 13 15 17 20 21 20 19 15 13 12 12 11 7 5 6 6 6 8 10 11 12 13
0 0 0 0 1 1 1 2 2 2 3 5 9 11 10 8 7 8 9 10 9 9 11 14 17 20 21 20 18 15 12 12 12 10 7 5 6 5 5 5 7 9 11 12
0 0 0 0 0 1 2 3 3 4 5 6 9 10 9 9 8 7 8 9 9 9 11 14 18 20 20 20 19 16 12 10 9 7 4 4 4 4 4 4 4 5 6 6
0 0 0 1 0 1 2 3 4 5 5 6 8 10 11 11 10 7 8 9 10 10 11 13 16 17 17 18 18 15 12 8 7 5 3 3 4 6 6 5 4 3 2 2
0 0 2 4 4 5 7 9 9 9 8 7 11 16 16 14 11 9 9 10 10 10 10 10 11 12 12 13 13 12 10 7 6 5 4 4 6 8 7 6 5 4 2 1
1 2 5 9 12 12 15 17 18 16 15 14 16 18 16 14 13 12 12 11 10 9 9 9 9 9 8 8 8 8 7 6 5 4 3 3 4 6 6 6 5 5 3 1
6 7 8 12 15 15 16 19 20 19 18 17 16 14 12 11 12 14 15 13 10 9 9 9 9 9 7 6 6 5 4 3 2 1 0 1 1 3 5 5 5 4 4 3
11 11 9 9 10 10 11 14 15 14 13 12 11 10 9 9 12 14 15 13 10 9 8 7 7 7 6 5 5 3 2 1 1 0 0 0 1 2 4 4 4 4 4 5
12 11 8 6 5 6 7 9 10 9 8 7 7 7 8 9 10 12 12 12 11 8 6 5 5 5 5 5 4 3 1 0 0 0 0 0 1 2 3 3 2 3 3 3
9 9 7 6 5 5 6 7 7 8 8 8 8 9 9 9 10 11 10 9 8 6 4 4 4 3 4 4 4 2 1 1 1 1 0 0 1 2 2 1 1 1 1 1
6 5 5 5 5 4 5 5 6 7 8 8 8 8 8 8 9 9 6 5 5 4 3 3 3 3 3 4 4 3 2 2 2 2 1 1 2 3 2 1 1 0 0 0
2 2 3 4 3 3 2 2 4 5 5 5 4 4 4 5 5 4 2 2 3 3 3 3 3 3 3 3 3 3 3 3 3 3 3 3 3 3 3 2 1 0 0 0
0 0 1 3 3 2 1 1 1 3 3 2 1 1 1 2 2 1 0 1 2 3 3 3 3 3 3 2 3 3 3 3 3 3 3 3 3 3 3 2 1 0 0 0
1 0 0 1 2 1 1 0 0 1 1 1 1 1 1 1 1 0 0 0 1 2 3 3 3 2 1 1 1 2 2 2 2 2 2 2 2 2 2 1 0 0 0 0
1 1 1 0 0 0 0 0 0 0 0 0 0 0 0 0 0 0 0 0 0 1 1 2 1 1 0 0 0 1 1 1 1 1 1 1 1 1 1 0 0 0 0 0
1 1 1 0 0 0 0 0 0 0 0 0 0 0 0 0 0 0 0 0 0 0 0 0 0 0 0 0 0 0 0 0 0 0 0 0 0 0 0 0 0 0 0 0
0 1 1 0 0 0 0 0 0 0 0 0 0 0 0 0 0 0 0 0 0 0 0 0 0 0 0 0 0 0 0 0 0 0 0 0 0 0 0 0 0 0 0 0
0 0 0 0 0 0 0 0 0 0 0 0 0 0 0 0 0 0 0 0 0 0 0 0 0 0 0 0 0 0 0 0 0 0 0 0 0 0 0 0 0 0 0 0
0 0 0 0 0 0 0 0 0 0 0 0 0 0 0 0 0 0 0 0 0 0 0 0 0 0 0 0 0 0 0 0 0 0 0 0 0 0 0 0 0 0 0 0
0 0 0 0 0 0 0 0 0 0 0 0 0 0 0 0 0 0 0 0 0 0 0 0 0 0 0 0 0 0 0 0 0 0 0 0 0 0 0 0 0 0 0 0
0 0 0 0 0 0 0 0 0 0 0 0 0 0 0 0 0 0 0 0 0 0 0 0 0 0 0 0 0 0 0 0 0 0 0 0 0 0 0 0 0 0 0 0
1 0 0 0 0 0 0 0 0 0 0 0 0 0 0 0 0 0 0 0 0 0 0 0 0 0 0 0 0 0 0 0 0 0 0 0 0 0 0 0 0 0 0 0
2 1 0 0 0 0 0 0 0 0 0 0 0 0 0 0 0 0 0 0 0 0 0 0 0 0 0 0 0 0 0 0 0 0 0 0 0 0 0 0 0 0 0 0
2 1 0 0 0 0 0 0 0 0 0 0 0 0 0 0 0 0 0 0 0 0 0 0 0 0 0 0 0 0 0 0 0 0 0 0 0 0 0 0 0 0 0 0
1 1 0 0 0 0 0 0 0 0 0 0 0 0 0 0 0 0 0 0 0 0 0 0 0 0 0 0 0 0 0 0 0 0 0 0 0 0 0 0 0 0 0 0
Wind_Speed
7 5 11 13 14 15 16 14 11 8 7 6 7 7 7 8 8 8 7 7 6 5 4 4 4 4 4 4 5 5 5 6 6 6 6 7 7 7 7 8 8 8 9 9
8 8 10 11 13 14 14 12 10 6 4 5 7 7 8 8 8 8 7 6 5 5 4 4 4 4 4 4 4 4 4 4 5 5 6 6 6 6 7 7 7 7 7 7
9 9 10 12 12 12 12 10 10 9 5 9 9 8 7 7 7 7 6 6 5 4 3 3 3 3 4 5 5 4 4 4 4 5 5 6 6 6 6 5 5 5 5 5
8 9 13 4 2 6 7 5 4 2 6 7 8 8 7 6 6 6 6 5 4 4 3 3 4 4 4 5 5 5 4 4 4 5 5 6 6 5 4 4 4 4 4 3
8 11 8 6 5 6 7 5 3 6 8 10 12 11 8 5 5 6 5 4 4 4 4 4 4 4 4 5 5 5 4 4 4 5 5 5 6 6 5 5 4 3 3 3
8 11 10 5 6 2 5 6 5 7 10 12 12 8 7 6 6 7 6 5 5 5 5 4 4 4 5 5 5 4 3 3 3 4 5 5 5 5 5 5 5 4 4 4
10 9 4 5 3 6 9 4 5 6 8 9 5 5 10 9 8 7 7 6 6 5 5 4 4 5 6 5 5 4 3 4 4 5 6 6 5 5 6 6 6 6 7 6
9 10 5 4 3 2 4 4 4 5 7 9 11 12 12 10 9 8 8 7 7 6 6 5 5 6 6 6 5 5 6 6 6 6 6 7 7 7 7 7 8 7 7 7
2 2 6 4 4 4 2 3 4 6 9 11 12 12 12 10 9 8 8 8 7 8 8 7 6 6 7 6 6 7 8 8 8 9 8 8 7 7 7 6 6 6 5 6
2 4 4 4 4 4 3 4 6 8 10 11 12 13 12 10 9 8 8 8 8 9 9 8 8 8 8 7 7 9 10 10 9 10 10 9 7 7 7 6 6 6 5 6
3 4 5 4 4 5 6 8 10 10 11 12 13 13 12 10 9 9 8 8 8 9 10 9 9 9 9 8 9 10 11 10 10 10 10 11 11 10 9 9 7 5 6 6
1 3 2 5 4 5 7 9 10 11 12 12 12 13 12 11 10 9 9 9 10 10 10 10 10 10 9 8 9 10 10 9 8 8 9 9 11 12 19 15 18 18 14 10
2 4 5 6 5 7 8 10 11 11 12 13 12 12 13 12 11 11 10 10 10 11 11 10 11 11 9 9 9 10 10 9 8 8 8 8 8 10 10 13 17 18 17 15
4 6 6 6 7 8 10 12 13 12 12 12 12 13 12 12 12 12 11 10 11 11 11 11 12 11 9 9 10 11 11 10 9 8 8 8 8 8 7 8 9 10 11 13
4 5 7 8 8 9 11 12 13 12 13 12 12 12 13 13 13 12 11 10 11 12 12 11 12 11 9 10 11 10 9 8 8 8 8 8 8 8 8 9 8 8 8 8
5 8 10 10 10 10 11 12 13 13 12 12 12 12 13 13 13 12 11 10 11 12 11 11 11 9 8 10 10 9 9 10 8 8 8 8 7 7 8 8 8 7 7 6
8 9 10 10 10 11 11 11 12 13 13 13 13 13 13 13 13 12 12 12 12 11 10 10 10 9 8 8 9 8 9 9 8 8 8 8 7 8 7 7 7 8 8 8
6 8 9 10 10 11 12 12 12 12 12 12 13 13 12 12 13 12 11 11 12 12 11 10 9 9 9 9 7 7 7 7 7 8 8 8 7 7 7 7 8 8 7 7
8 10 10 10 11 12 12 13 12 12 12 11 12 12 12 12 12 11 10 11 11 11 10 10 8 10 10 9 7 7 8 9 9 8 8 8 7 7 7 7 7 7 6 6
10 11 12 13 13 13 13 13 13 12 11 12 13 13 12 11 11 11 11 10 9 8 8 8 9 9 9 8 5 7 8 8 8 8 7 7 7 7 7 7 7 7 6 6
11 13 14 14 14 14 13 13 13 13 12 12 12 12 12 11 10 10 10 10 9 8 9 7 7 7 7 6 5 7 7 8 7 7 7 7 7 7 7 7 6 6 6 6
11 13 15 15 14 13 12 12 13 13 13 12 13 12 12 11 11 10 10 8 8 4 5 7 8 8 5 4 7 7 7 7 7 6 6 6 6 6 6 6 6 5 5 5
11 12 14 14 15 14 14 13 13 12 12 12 12 11 11 9 8 8 9 7 7 7 7 9 8 6 3 5 7 7 7 7 7 6 6 6 6 6 5 5 5 5 4 4
12 13 13 14 14 15 14 13 12 11 12 11 10 10 10 8 8 8 9 9 8 8 9 8 6 4 2 5 6 7 7 6 6 6 6 5 5 5 5 4 4 4 4 4
12 13 14 14 13 12 13 13 13 13 12 10 11 10 8 7 8 9 9 10 9 8 9 8 5 2 4 6 6 6 6 6 5 5 5 5 5 5 5 4 4 4 3 3
11 11 10 10 10 10 10 9 9 9 9 9 9 8 8 8 9 8 7 9 10 7 7 6 6 4 5 6 6 6 6 5 4 4 5 5 5 5 4 4 4 3 3 3
12 10 9 9 9 9 9 9 9 9 8 9 9 8 8 8 7 7 8 7 6 6 6 6 5 5 5 5 5 5 5 5 5 4 4 4 4 3 3 3 2 2 2 3
Wind_Direction
237 204 195 200 201 204 218 232 239 221 206 175 162 159 147 144 143 138 139 141 138 135 128 135 139 139 141 145 149 161 174 180 186 188 188 188 189 191 194 195 197 196 197 200
216 207 209 213 212 210 215 226 233 223 187 125 131 137 139 147 148 143 140 137 134 131 136 147 151 147 141 139 145 155 164 171 174 178 177 180 180 180 182 184 188 187 191 195
209 196 203 211 210 210 211 216 224 220 177 146 142 138 136 140 145 141 137 130 126 124 126 140 148 150 149 145 147 148 151 152 155 161 165 167 164 164 173 175 171 174 179 185
208 196 217 179 162 221 213 215 225 162 137 143 127 115 108 121 133 131 125 118 114 114 113 128 138 147 149 143 142 138 139 141 142 145 148 149 149 150 150 154 157 153 154 154
214 211 209 172 174 193 201 203 190 165 145 132 128 125 107 95 105 108 106 107 105 103 110 109 113 127 138 137 135 132 129 132 137 146 145 146 147 146 141 139 134 126 122 123
216 221 218 164 137 188 216 191 146 157 154 153 169 173 129 119 112 105 100 99 99 98 99 105 107 121 124 121 117 112 113 119 125 135 139 141 138 137 135 133 127 117 98 88
217 221 193 85 134 195 217 144 129 154 158 167 164 86 116 121 112 107 101 95 94 95 93 92 99 112 111 104 98 95 100 101 99 105 111 114 114 118 122 121 113 104 95 84
219 222 180 95 173 209 53 71 122 140 141 130 111 111 119 117 111 106 98 93 91 90 84 80 90 104 102 93 90 92 89 84 85 86 90 98 100 101 105 111 109 105 101 91
261 60 68 67 63 58 72 96 112 125 126 128 126 124 120 115 108 99 93 89 87 89 84 75 76 87 91 85 89 93 88 84 82 82 78 83 91 96 98 99 102 103 103 97
176 123 102 87 81 78 88 102 111 122 126 130 126 123 120 114 107 99 93 91 92 91 84 75 72 74 77 82 88 93 90 85 83 83 80 74 72 74 78 81 94 99 99 97
178 133 125 109 85 85 92 103 110 115 121 126 123 121 118 113 108 101 95 90 88 86 84 81 81 78 79 85 92 94 92 91 89 86 85 77 68 53 60 52 46 68 82 82
135 125 119 110 104 111 111 111 114 117 118 119 118 119 116 111 107 102 96 93 90 87 85 84 83 80 81 87 96 100 98 96 93 95 95 95 94 80 59 62 59 55 52 66
66 93 97 112 110 112 113 112 112 113 115 116 115 115 113 110 104 99 94 90 89 88 87 87 86 81 78 84 91 94 97 96 95 95 97 98 100 102 98 79 69 61 57 61
118 122 123 118 111 112 114 112 111 110 110 111 112 112 111 107 103 97 93 93 93 91 88 86 84 81 82 88 90 93 95 93 96 96 98 99 100 100 100 102 97 85 70 67
134 130 123 120 120 120 121 121 118 115 114 112 112 112 110 106 102 97 96 96 94 90 85 84 82 80 83 90 91 90 90 91 92 95 97 96 97 97 95 94 95 97 98 93
126 127 129 130 131 131 130 129 124 121 118 114 110 107 106 104 101 97 93 91 89 85 83 82 81 82 86 90 94 91 85 79 86 95 96 96 94 93 92 91 88 83 77 73
149 145 140 137 137 133 129 128 125 123 119 115 112 112 110 107 102 97 92 88 85 82 80 81 83 85 87 90 95 98 99 97 96 93 89 88 87 86 87 86 85 83 75 49
151 142 141 139 135 129 127 123 119 118 115 116 117 114 110 107 103 100 98 97 91 82 75 76 81 86 85 85 86 93 98 97 91 88 87 83 85 87 87 87 88 89 93 89
136 135 136 135 132 128 124 121 117 114 115 117 113 109 106 105 104 103 102 98 95 89 79 79 80 86 85 80 86 94 94 95 93 90 91 94 91 86 85 85 84 83 79 76
126 128 129 129 127 124 122 121 120 119 118 117 114 110 107 106 106 105 99 88 78 84 91 87 91 86 88 78 71 93 94 95 95 96 95 92 89 89 87 86 83 81 78 73
124 126 126 126 123 122 124 125 124 122 120 120 118 115 112 111 110 109 106 96 85 86 94 92 87 87 88 90 89 92 94 96 96 93 93 91 91 89 86 84 82 79 77 74
121 123 124 123 122 122 121 121 121 119 118 118 117 117 116 114 110 101 91 93 100 94 102 94 85 74 72 87 91 90 92 93 92 91 89 89 90 91 88 86 83 79 76 73
122 123 123 124 123 121 120 120 119 119 119 119 120 121 117 113 113 113 107 101 102 90 84 79 76 69 52 95 92 93 91 90 90 91 91 92 92 93 93 90 85 81 79 76
123 124 123 123 122 121 120 119 116 114 113 113 113 114 116 114 105 97 98 93 84 90 87 84 75 60 63 93 93 94 94 94 94 95 97 97 95 93 89 86 85 82 77 69
121 122 122 123 120 117 117 118 115 115 113 109 111 110 105 100 104 104 106 105 108 107 103 97 84 62 94 91 94 92 88 80 81 89 94 92 92 90 88 85 80 77 72 67
116 115 114 113 113 119 122 121 119 117 115 114 111 107 103 103 107 110 112 112 108 108 108 109 107 106 90 90 89 90 97 107 107 97 89 89 86 85 84 82 82 75 74 67
110 109 110 109 111 114 115 115 115 115 116 117 114 110 108 109 111 112 114 118 119 113 106 105 102 95 90 89 90 92 91 90 88 89 92 87 83 81 84 86 82 79 73 72